QPF
0.00 0.00 0.00 0.00 0.00 0.00 0.00 0.00 0.00 0.00 0.00 0.00 0.00 0.01 0.01 0.01 0.01 0.01 0.02 0.03 0.03 0.04 0.05 0.06 0.05 0.05 0.06 0.07 0.07 0.07 0.06 0.05 0.06 0.07 0.07 0.07 0.08 0.08 0.08 0.08 0.10 0.11 0.13 0.13
0.00 0.00 0.00 0.00 0.00 0.00 0.00 0.00 0.00 0.00 0.00 0.00 0.00 0.00 0.00 0.01 0.01 0.01 0.02 0.02 0.03 0.03 0.05 0.06 0.06 0.06 0.06 0.06 0.06 0.07 0.06 0.06 0.06 0.07 0.06 0.07 0.08 0.09 0.09 0.09 0.10 0.12 0.13 0.15
0.00 0.00 0.00 0.00 0.00 0.00 0.00 0.00 0.00 0.00 0.00 0.00 0.00 0.00 0.00 0.00 0.01 0.01 0.01 0.02 0.02 0.02 0.04 0.04 0.05 0.05 0.06 0.06 0.06 0.06 0.06 0.06 0.06 0.06 0.07 0.07 0.06 0.06 0.06 0.07 0.07 0.09 0.10 0.11
0.00 0.00 0.00 0.00 0.00 0.00 0.00 0.00 0.00 0.00 0.00 0.00 0.00 0.00 0.00 0.00 0.00 0.00 0.00 0.01 0.01 0.01 0.02 0.03 0.03 0.04 0.04 0.04 0.05 0.05 0.05 0.05 0.06 0.05 0.05 0.05 0.06 0.06 0.06 0.06 0.06 0.07 0.07 0.08
0.01 0.00 0.00 0.00 0.00 0.00 0.00 0.00 0.00 0.00 0.00 0.00 0.00 0.00 0.00 0.00 0.00 0.00 0.00 0.00 0.00 0.01 0.01 0.01 0.02 0.03 0.03 0.03 0.03 0.04 0.04 0.04 0.05 0.05 0.05 0.04 0.04 0.05 0.06 0.06 0.07 0.07 0.07 0.07
0.01 0.01 0.00 0.00 0.00 0.00 0.00 0.00 0.00 0.00 0.00 0.00 0.00 0.00 0.00 0.00 0.00 0.00 0.00 0.00 0.00 0.00 0.00 0.00 0.00 0.01 0.01 0.01 0.02 0.02 0.03 0.03 0.03 0.03 0.03 0.04 0.04 0.05 0.05 0.05 0.05 0.06 0.06 0.07
0.00 0.00 0.00 0.00 0.00 0.00 0.00 0.00 0.00 0.00 0.00 0.00 0.00 0.00 0.00 0.00 0.00 0.00 0.00 0.00 0.01 0.01 0.01 0.00 0.00 0.01 0.01 0.01 0.01 0.01 0.02 0.01 0.01 0.02 0.02 0.03 0.03 0.03 0.04 0.04 0.04 0.05 0.05 0.05
0.00 0.00 0.00 0.00 0.00 0.00 0.00 0.00 0.00 0.00 0.00 0.00 0.00 0.00 0.00 0.00 0.00 0.00 0.00 0.00 0.01 0.01 0.01 0.00 0.00 0.01 0.01 0.00 0.01 0.01 0.01 0.01 0.01 0.02 0.02 0.02 0.02 0.03 0.03 0.03 0.03 0.04 0.04 0.04
0.00 0.00 0.00 0.00 0.00 0.00 0.00 0.00 0.00 0.00 0.00 0.00 0.00 0.00 0.00 0.00 0.00 0.00 0.00 0.00 0.00 0.01 0.01 0.01 0.00 0.00 0.01 0.01 0.01 0.01 0.02 0.02 0.02 0.02 0.02 0.02 0.02 0.02 0.02 0.02 0.02 0.03 0.03 0.03
0.00 0.00 0.00 0.00 0.00 0.00 0.00 0.00 0.00 0.00 0.00 0.00 0.00 0.00 0.00 0.00 0.00 0.00 0.00 0.00 0.00 0.01 0.01 0.01 0.01 0.01 0.01 0.01 0.01 0.01 0.02 0.02 0.02 0.01 0.01 0.01 0.01 0.02 0.02 0.02 0.02 0.02 0.03 0.03
0.00 0.00 0.00 0.00 0.00 0.00 0.00 0.00 0.00 0.00 0.00 0.00 0.00 0.00 0.00 0.00 0.00 0.00 0.00 0.00 0.00 0.00 0.00 0.00 0.01 0.01 0.01 0.01 0.01 0.01 0.01 0.01 0.01 0.01 0.01 0.01 0.01 0.01 0.01 0.01 0.02 0.03 0.03 0.03
0.00 0.00 0.00 0.00 0.00 0.00 0.00 0.00 0.00 0.00 0.00 0.00 0.00 0.00 0.00 0.00 0.00 0.00 0.00 0.00 0.00 0.00 0.00 0.00 0.00 0.00 0.00 0.01 0.01 0.01 0.01 0.01 0.01 0.01 0.01 0.01 0.01 0.01 0.01 0.01 0.02 0.02 0.03 0.02
0.00 0.00 0.00 0.00 0.00 0.00 0.00 0.00 0.00 0.00 0.00 0.00 0.00 0.00 0.00 0.00 0.00 0.00 0.00 0.00 0.00 0.00 0.00 0.00 0.00 0.00 0.00 0.00 0.00 0.00 0.00 0.00 0.01 0.01 0.01 0.01 0.01 0.01 0.01 0.01 0.02 0.02 0.03 0.03
0.00 0.00 0.00 0.00 0.00 0.00 0.00 0.00 0.00 0.00 0.00 0.00 0.00 0.00 0.00 0.00 0.00 0.00 0.00 0.00 0.00 0.00 0.00 0.00 0.00 0.00 0.00 0.00 0.00 0.00 0.00 0.00 0.01 0.01 0.01 0.01 0.01 0.01 0.01 0.01 0.02 0.02 0.03 0.03
0.00 0.00 0.00 0.00 0.00 0.00 0.00 0.00 0.00 0.00 0.00 0.00 0.00 0.00 0.00 0.00 0.00 0.00 0.00 0.00 0.00 0.00 0.00 0.00 0.00 0.00 0.00 0.00 0.00 0.00 0.00 0.01 0.01 0.01 0.01 0.01 0.00 0.00 0.01 0.01 0.01 0.01 0.02 0.03
0.00 0.00 0.00 0.00 0.00 0.00 0.00 0.00 0.00 0.00 0.00 0.00 0.00 0.00 0.00 0.00 0.00 0.00 0.00 0.00 0.00 0.00 0.00 0.00 0.00 0.00 0.00 0.00 0.00 0.00 0.00 0.01 0.01 0.01 0.01 0.00 0.00 0.00 0.00 0.00 0.01 0.01 0.02 0.02
0.00 0.00 0.00 0.00 0.00 0.00 0.00 0.00 0.00 0.00 0.00 0.00 0.00 0.00 0.00 0.00 0.00 0.00 0.00 0.00 0.00 0.00 0.00 0.00 0.00 0.00 0.00 0.00 0.01 0.01 0.01 0.00 0.00 0.00 0.00 0.00 0.00 0.01 0.01 0.01 0.01 0.01 0.01 0.01
0.00 0.00 0.00 0.00 0.00 0.00 0.00 0.00 0.00 0.00 0.00 0.00 0.00 0.00 0.00 0.00 0.00 0.00 0.00 0.00 0.00 0.00 0.00 0.00 0.00 0.00 0.00 0.00 0.00 0.01 0.01 0.00 0.00 0.00 0.00 0.00 0.01 0.01 0.01 0.01 0.01 0.01 0.01 0.01
0.00 0.00 0.00 0.00 0.00 0.00 0.00 0.00 0.00 0.00 0.00 0.00 0.00 0.00 0.01 0.01 0.01 0.01 0.01 0.01 0.00 0.00 0.00 0.00 0.00 0.00 0.00 0.00 0.00 0.01 0.01 0.01 0.00 0.00 0.00 0.00 0.00 0.00 0.01 0.01 0.01 0.01 0.01 0.01
0.00 0.00 0.00 0.00 0.00 0.00 0.00 0.00 0.00 0.00 0.00 0.00 0.00 0.01 0.01 0.02 0.02 0.02 0.02 0.01 0.01 0.00 0.00 0.00 0.00 0.00 0.00 0.00 0.00 0.00 0.01 0.01 0.01 0.00 0.00 0.00 0.00 0.00 0.01 0.01 0.01 0.01 0.01 0.01
0.00 0.00 0.00 0.00 0.00 0.00 0.00 0.00 0.00 0.00 0.00 0.00 0.01 0.01 0.02 0.02 0.02 0.02 0.02 0.01 0.01 0.00 0.00 0.00 0.00 0.00 0.00 0.00 0.00 0.00 0.01 0.01 0.01 0.01 0.01 0.01 0.01 0.01 0.01 0.01 0.01 0.01 0.01 0.01
0.00 0.00 0.00 0.00 0.00 0.00 0.00 0.00 0.00 0.00 0.01 0.01 0.01 0.02 0.02 0.02 0.02 0.02 0.01 0.01 0.00 0.00 0.00 0.00 0.00 0.00 0.00 0.00 0.00 0.00 0.00 0.00 0.01 0.01 0.01 0.01 0.01 0.01 0.01 0.01 0.01 0.01 0.01 0.01
0.00 0.00 0.00 0.00 0.00 0.00 0.00 0.00 0.01 0.01 0.01 0.01 0.01 0.02 0.02 0.02 0.01 0.01 0.01 0.01 0.01 0.01 0.01 0.01 0.01 0.01 0.00 0.00 0.00 0.00 0.00 0.00 0.01 0.01 0.01 0.01 0.01 0.01 0.01 0.01 0.01 0.01 0.02 0.02
0.00 0.00 0.00 0.00 0.00 0.00 0.00 0.01 0.01 0.01 0.01 0.01 0.01 0.01 0.01 0.01 0.01 0.01 0.01 0.01 0.01 0.01 0.01 0.01 0.01 0.01 0.00 0.00 0.00 0.00 0.00 0.00 0.00 0.01 0.01 0.01 0.01 0.01 0.01 0.01 0.01 0.01 0.01 0.02
0.00 0.00 0.00 0.00 0.00 0.00 0.00 0.00 0.01 0.01 0.01 0.01 0.01 0.01 0.01 0.01 0.01 0.01 0.01 0.01 0.01 0.01 0.01 0.01 0.01 0.01 0.00 0.00 0.00 0.00 0.00 0.00 0.01 0.01 0.01 0.01 0.01 0.01 0.01 0.01 0.01 0.01 0.01 0.01
0.00 0.00 0.00 0.00 0.00 0.00 0.00 0.00 0.00 0.00 0.00 0.00 0.00 0.00 0.00 0.00 0.00 0.01 0.01 0.01 0.01 0.01 0.01 0.01 0.01 0.00 0.00 0.00 0.00 0.00 0.00 0.00 0.01 0.01 0.01 0.01 0.01 0.01 0.01 0.01 0.01 0.01 0.01 0.01
0.00 0.00 0.00 0.00 0.00 0.00 0.00 0.00 0.00 0.00 0.00 0.00 0.00 0.00 0.00 0.00 0.00 0.01 0.01 0.01 0.01 0.01 0.01 0.00 0.00 0.00 0.00 0.00 0.00 0.00 0.00 0.01 0.01 0.01 0.01 0.01 0.01 0.01 0.01 0.01 0.01 0.01 0.01 0.01
MSLP
1015.63 1015.36 1015.10 1014.88 1014.71 1014.59 1014.52 1014.47 1014.44 1014.43 1014.42 1014.45 1014.52 1014.66 1014.88 1015.18 1015.57 1016.01 1016.46 1016.89 1017.23 1017.45 1017.52 1017.40 1017.11 1016.64 1016.03 1015.31 1014.50 1013.64 1012.75 1011.84 1010.92 1009.99 1009.06 1008.12 1007.20 1006.30 1005.44 1004.66 1003.98 1003.43 1003.02 1002.77
1015.37 1015.01 1014.65 1014.33 1014.06 1013.87 1013.74 1013.68 1013.67 1013.70 1013.78 1013.90 1014.07 1014.30 1014.60 1014.96 1015.39 1015.85 1016.32 1016.76 1017.12 1017.37 1017.48 1017.43 1017.22 1016.85 1016.34 1015.72 1015.02 1014.27 1013.48 1012.67 1011.85 1011.03 1010.19 1009.35 1008.50 1007.68 1006.88 1006.13 1005.45 1004.87 1004.41 1004.06
1015.02 1014.59 1014.14 1013.73 1013.38 1013.12 1012.95 1012.88 1012.89 1012.98 1013.14 1013.37 1013.65 1013.99 1014.38 1014.82 1015.29 1015.79 1016.27 1016.72 1017.10 1017.37 1017.51 1017.52 1017.37 1017.08 1016.67 1016.14 1015.54 1014.89 1014.19 1013.48 1012.76 1012.02 1011.29 1010.55 1009.82 1009.09 1008.39 1007.73 1007.12 1006.57 1006.11 1005.72
1014.64 1014.15 1013.64 1013.16 1012.74 1012.42 1012.22 1012.14 1012.18 1012.33 1012.57 1012.90 1013.29 1013.74 1014.23 1014.75 1015.28 1015.82 1016.32 1016.77 1017.15 1017.43 1017.59 1017.63 1017.53 1017.31 1016.97 1016.53 1016.02 1015.45 1014.84 1014.21 1013.57 1012.93 1012.29 1011.66 1011.04 1010.44 1009.86 1009.31 1008.80 1008.34 1007.93 1007.57
1014.27 1013.73 1013.18 1012.65 1012.18 1011.82 1011.59 1011.51 1011.57 1011.77 1012.09 1012.52 1013.02 1013.57 1014.16 1014.75 1015.34 1015.90 1016.42 1016.87 1017.24 1017.52 1017.69 1017.74 1017.68 1017.51 1017.24 1016.87 1016.43 1015.93 1015.40 1014.84 1014.27 1013.70 1013.15 1012.61 1012.10 1011.62 1011.17 1010.76 1010.37 1010.02 1009.69 1009.39
1013.91 1013.35 1012.77 1012.20 1011.71 1011.33 1011.08 1011.00 1011.09 1011.33 1011.72 1012.22 1012.81 1013.46 1014.12 1014.78 1015.41 1016.00 1016.52 1016.97 1017.32 1017.59 1017.75 1017.82 1017.78 1017.65 1017.43 1017.12 1016.75 1016.32 1015.85 1015.35 1014.85 1014.35 1013.87 1013.41 1013.00 1012.62 1012.29 1011.99 1011.73 1011.49 1011.25 1011.01
1013.56 1012.97 1012.37 1011.80 1011.30 1010.91 1010.67 1010.60 1010.71 1011.00 1011.43 1012.00 1012.65 1013.36 1014.09 1014.80 1015.46 1016.06 1016.58 1017.02 1017.36 1017.60 1017.76 1017.83 1017.81 1017.71 1017.54 1017.29 1016.98 1016.61 1016.20 1015.77 1015.32 1014.88 1014.46 1014.08 1013.73 1013.44 1013.20 1013.00 1012.83 1012.68 1012.52 1012.34
1013.16 1012.57 1011.98 1011.42 1010.93 1010.56 1010.34 1010.29 1010.42 1010.73 1011.20 1011.81 1012.51 1013.26 1014.02 1014.76 1015.45 1016.05 1016.57 1016.99 1017.31 1017.54 1017.69 1017.77 1017.76 1017.70 1017.57 1017.37 1017.12 1016.82 1016.48 1016.11 1015.73 1015.34 1014.97 1014.64 1014.36 1014.12 1013.94 1013.80 1013.69 1013.59 1013.48 1013.34
1012.71 1012.12 1011.55 1011.02 1010.57 1010.24 1010.05 1010.03 1010.19 1010.52 1011.01 1011.63 1012.35 1013.12 1013.90 1014.65 1015.34 1015.95 1016.46 1016.87 1017.18 1017.40 1017.55 1017.63 1017.65 1017.61 1017.53 1017.39 1017.21 1016.98 1016.71 1016.41 1016.09 1015.76 1015.44 1015.16 1014.91 1014.71 1014.56 1014.45 1014.36 1014.28 1014.19 1014.05
1012.19 1011.62 1011.09 1010.62 1010.24 1009.96 1009.82 1009.84 1010.02 1010.36 1010.85 1011.47 1012.18 1012.95 1013.72 1014.46 1015.15 1015.75 1016.25 1016.66 1016.97 1017.19 1017.34 1017.43 1017.48 1017.48 1017.44 1017.36 1017.25 1017.09 1016.90 1016.67 1016.42 1016.15 1015.89 1015.65 1015.43 1015.25 1015.11 1015.00 1014.91 1014.81 1014.70 1014.55
1011.63 1011.11 1010.65 1010.26 1009.95 1009.75 1009.66 1009.72 1009.91 1010.25 1010.73 1011.32 1012.00 1012.74 1013.48 1014.20 1014.87 1015.46 1015.96 1016.36 1016.68 1016.91 1017.08 1017.19 1017.26 1017.30 1017.31 1017.29 1017.24 1017.16 1017.04 1016.89 1016.71 1016.52 1016.31 1016.11 1015.93 1015.76 1015.62 1015.49 1015.38 1015.25 1015.10 1014.91
1011.11 1010.65 1010.28 1009.98 1009.77 1009.64 1009.62 1009.70 1009.90 1010.22 1010.66 1011.21 1011.83 1012.51 1013.20 1013.88 1014.52 1015.10 1015.59 1016.00 1016.33 1016.58 1016.76 1016.90 1017.01 1017.08 1017.14 1017.17 1017.18 1017.17 1017.13 1017.06 1016.95 1016.83 1016.68 1016.53 1016.38 1016.23 1016.08 1015.94 1015.79 1015.63 1015.44 1015.21
1010.69 1010.32 1010.05 1009.86 1009.74 1009.69 1009.71 1009.82 1010.01 1010.29 1010.67 1011.13 1011.67 1012.27 1012.90 1013.52 1014.12 1014.67 1015.16 1015.57 1015.91 1016.18 1016.40 1016.57 1016.70 1016.82 1016.91 1016.99 1017.06 1017.11 1017.13 1017.13 1017.10 1017.05 1016.97 1016.86 1016.74 1016.61 1016.47 1016.31 1016.14 1015.95 1015.73 1015.47
1010.43 1010.18 1010.02 1009.93 1009.90 1009.91 1009.97 1010.07 1010.23 1010.45 1010.74 1011.10 1011.54 1012.04 1012.57 1013.12 1013.67 1014.19 1014.66 1015.08 1015.43 1015.73 1015.97 1016.16 1016.33 1016.48 1016.61 1016.73 1016.85 1016.95 1017.03 1017.09 1017.13 1017.14 1017.11 1017.06 1016.98 1016.87 1016.74 1016.58 1016.39 1016.18 1015.94 1015.68
1010.37 1010.23 1010.19 1010.20 1010.24 1010.30 1010.36 1010.44 1010.54 1010.67 1010.86 1011.10 1011.42 1011.80 1012.23 1012.69 1013.17 1013.65 1014.10 1014.52 1014.88 1015.19 1015.46 1015.69 1015.89 1016.06 1016.22 1016.38 1016.53 1016.67 1016.80 1016.92 1017.01 1017.07 1017.10 1017.09 1017.05 1016.96 1016.84 1016.69 1016.50 1016.29 1016.05 1015.78
1010.49 1010.48 1010.54 1010.63 1010.73 1010.80 1010.85 1010.88 1010.90 1010.93 1010.99 1011.11 1011.29 1011.54 1011.86 1012.23 1012.64 1013.07 1013.49 1013.89 1014.26 1014.59 1014.88 1015.13 1015.36 1015.56 1015.75 1015.93 1016.11 1016.29 1016.46 1016.61 1016.74 1016.85 1016.92 1016.94 1016.92 1016.86 1016.76 1016.61 1016.43 1016.22 1015.99 1015.75
1010.77 1010.87 1011.01 1011.16 1011.28 1011.35 1011.36 1011.32 1011.24 1011.16 1011.10 1011.08 1011.13 1011.26 1011.47 1011.74 1012.08 1012.45 1012.84 1013.22 1013.59 1013.93 1014.24 1014.51 1014.76 1014.98 1015.20 1015.40 1015.60 1015.80 1016.00 1016.18 1016.34 1016.47 1016.56 1016.61 1016.61 1016.56 1016.47 1016.33 1016.16 1015.97 1015.77 1015.56
1011.14 1011.32 1011.52 1011.69 1011.81 1011.85 1011.80 1011.68 1011.51 1011.32 1011.14 1011.01 1010.94 1010.95 1011.05 1011.24 1011.51 1011.82 1012.17 1012.54 1012.90 1013.24 1013.56 1013.84 1014.11 1014.36 1014.59 1014.81 1015.03 1015.24 1015.45 1015.64 1015.82 1015.96 1016.06 1016.12 1016.13 1016.09 1016.00 1015.88 1015.72 1015.55 1015.36 1015.19
1011.53 1011.76 1011.99 1012.16 1012.24 1012.23 1012.12 1011.92 1011.66 1011.38 1011.10 1010.86 1010.70 1010.62 1010.65 1010.76 1010.96 1011.23 1011.54 1011.88 1012.22 1012.56 1012.88 1013.17 1013.45 1013.71 1013.95 1014.18 1014.41 1014.63 1014.84 1015.03 1015.20 1015.34 1015.44 1015.50 1015.51 1015.47 1015.39 1015.27 1015.13 1014.98 1014.83 1014.70
1011.87 1012.13 1012.35 1012.49 1012.52 1012.45 1012.27 1012.00 1011.67 1011.31 1010.97 1010.67 1010.44 1010.30 1010.27 1010.33 1010.48 1010.70 1010.98 1011.29 1011.61 1011.93 1012.24 1012.53 1012.81 1013.07 1013.31 1013.55 1013.77 1013.99 1014.19 1014.37 1014.53 1014.65 1014.74 1014.78 1014.79 1014.75 1014.67 1014.57 1014.45 1014.33 1014.22 1014.13
1012.15 1012.39 1012.57 1012.66 1012.64 1012.50 1012.25 1011.93 1011.55 1011.16 1010.77 1010.44 1010.18 1010.02 1009.95 1009.98 1010.09 1010.28 1010.52 1010.79 1011.09 1011.38 1011.67 1011.95 1012.21 1012.46 1012.70 1012.92 1013.13 1013.33 1013.52 1013.68 1013.81 1013.92 1013.98 1014.01 1014.01 1013.97 1013.91 1013.83 1013.74 1013.66 1013.60 1013.56
1012.32 1012.52 1012.65 1012.67 1012.58 1012.39 1012.10 1011.74 1011.34 1010.94 1010.55 1010.22 1009.97 1009.80 1009.72 1009.73 1009.82 1009.98 1010.19 1010.42 1010.68 1010.94 1011.20 1011.45 1011.68 1011.91 1012.12 1012.33 1012.51 1012.69 1012.84 1012.98 1013.08 1013.16 1013.21 1013.22 1013.21 1013.18 1013.13 1013.08 1013.04 1013.01 1013.01 1013.03
1012.36 1012.51 1012.57 1012.53 1012.39 1012.15 1011.83 1011.47 1011.08 1010.69 1010.34 1010.04 1009.82 1009.67 1009.60 1009.62 1009.69 1009.82 1009.99 1010.19 1010.40 1010.61 1010.83 1011.04 1011.24 1011.43 1011.61 1011.78 1011.94 1012.08 1012.20 1012.30 1012.37 1012.42 1012.45 1012.45 1012.44 1012.41 1012.39 1012.38 1012.39 1012.42 1012.48 1012.57
1012.25 1012.34 1012.34 1012.25 1012.06 1011.80 1011.49 1011.14 1010.79 1010.46 1010.17 1009.93 1009.76 1009.65 1009.61 1009.63 1009.70 1009.80 1009.94 1010.09 1010.25 1010.42 1010.58 1010.74 1010.89 1011.04 1011.18 1011.32 1011.43 1011.54 1011.62 1011.68 1011.73 1011.75 1011.75 1011.74 1011.73 1011.72 1011.72 1011.75 1011.81 1011.90 1012.02 1012.17
1011.98 1012.01 1011.97 1011.84 1011.63 1011.38 1011.10 1010.80 1010.52 1010.26 1010.05 1009.89 1009.79 1009.74 1009.74 1009.77 1009.84 1009.93 1010.03 1010.14 1010.25 1010.36 1010.47 1010.58 1010.68 1010.79 1010.89 1010.98 1011.06 1011.12 1011.17 1011.20 1011.20 1011.19 1011.17 1011.15 1011.13 1011.13 1011.16 1011.22 1011.31 1011.45 1011.62 1011.83
1011.51 1011.51 1011.43 1011.29 1011.11 1010.89 1010.67 1010.46 1010.27 1010.12 1010.01 1009.94 1009.92 1009.94 1009.98 1010.04 1010.11 1010.19 1010.26 1010.33 1010.40 1010.46 1010.52 1010.58 1010.64 1010.71 1010.77 1010.82 1010.86 1010.89 1010.90 1010.89 1010.86 1010.82 1010.77 1010.73 1010.70 1010.69 1010.73 1010.80 1010.92 1011.08 1011.28 1011.52
1010.84 1010.82 1010.75 1010.64 1010.50 1010.36 1010.23 1010.13 1010.06 1010.03 1010.04 1010.09 1010.16 1010.25 1010.34 1010.44 1010.52 1010.58 1010.64 1010.68 1010.70 1010.73 1010.75 1010.77 1010.80 1010.83 1010.85 1010.87 1010.89 1010.88 1010.85 1010.81 1010.75 1010.67 1010.59 1010.52 1010.46 1010.44 1010.45 1010.52 1010.63 1010.79 1010.99 1011.22
Thickness
5523 5530 5531 5530 5529 5526 5520 5520 5517 5531 5536 5540 5539 5538 5537 5533 5530 5527 5524 5520 5517 5513 5511 5511 5510 5509 5509 5509 5510 5511 5512 5513 5513 5514 5516 5518 5520 5522 5524 5527 5529 5530 5532 5533
5517 5530 5532 5530 5533 5532 5529 5529 5528 5531 5535 5544 5542 5539 5536 5532 5529 5526 5523 5519 5516 5513 5510 5507 5506 5505 5505 5505 5505 5506 5507 5507 5507 5507 5509 5511 5513 5515 5516 5517 5519 5520 5522 5523
5516 5531 5528 5527 5543 5538 5537 5538 5535 5530 5537 5543 5539 5538 5535 5531 5528 5524 5521 5517 5514 5510 5507 5505 5503 5502 5501 5501 5501 5501 5501 5501 5501 5501 5502 5504 5507 5508 5509 5509 5510 5511 5512 5514
5510 5518 5517 5545 5553 5551 5544 5542 5541 5540 5542 5542 5539 5537 5535 5532 5527 5522 5518 5514 5511 5507 5505 5503 5501 5500 5498 5498 5497 5496 5496 5495 5496 5496 5496 5497 5499 5500 5500 5501 5502 5502 5503 5504
5504 5510 5528 5547 5547 5545 5540 5538 5544 5541 5540 5539 5537 5532 5531 5531 5526 5520 5516 5513 5508 5505 5502 5500 5498 5496 5495 5494 5492 5491 5490 5490 5490 5489 5489 5490 5490 5491 5491 5492 5494 5494 5495 5495
5501 5502 5515 5544 5543 5543 5537 5528 5542 5541 5537 5533 5528 5518 5524 5527 5522 5518 5514 5510 5505 5502 5499 5496 5494 5492 5490 5488 5486 5485 5484 5483 5483 5482 5482 5481 5481 5482 5482 5483 5484 5485 5486 5485
5491 5499 5519 5539 5537 5534 5522 5530 5537 5536 5533 5528 5521 5519 5520 5521 5518 5514 5510 5506 5502 5499 5495 5492 5490 5488 5486 5483 5481 5480 5479 5478 5477 5476 5475 5475 5475 5474 5474 5474 5475 5476 5476 5475
5498 5499 5515 5532 5528 5524 5528 5533 5532 5530 5527 5524 5520 5518 5517 5515 5512 5508 5504 5501 5497 5493 5489 5487 5484 5482 5480 5477 5476 5475 5473 5472 5470 5469 5469 5468 5467 5467 5467 5466 5466 5465 5465 5465
5512 5521 5532 5531 5529 5531 5529 5527 5526 5523 5523 5520 5516 5513 5512 5509 5506 5503 5499 5495 5491 5487 5483 5480 5478 5475 5472 5471 5469 5468 5466 5464 5463 5462 5461 5460 5459 5458 5458 5456 5455 5454 5453 5452
5511 5523 5529 5529 5527 5527 5525 5522 5521 5519 5517 5514 5510 5508 5505 5502 5499 5496 5493 5489 5485 5480 5476 5473 5471 5468 5465 5464 5462 5460 5458 5456 5455 5453 5452 5450 5449 5448 5447 5445 5444 5442 5440 5439
5505 5517 5521 5526 5524 5523 5521 5518 5515 5513 5510 5508 5504 5501 5498 5495 5492 5489 5486 5482 5478 5473 5470 5467 5464 5461 5458 5456 5454 5451 5449 5447 5446 5444 5442 5441 5440 5438 5437 5435 5433 5431 5429 5428
5507 5516 5514 5518 5519 5518 5513 5510 5508 5505 5503 5500 5497 5494 5491 5488 5486 5483 5478 5474 5469 5466 5462 5460 5457 5453 5451 5448 5446 5443 5440 5438 5436 5434 5432 5431 5429 5428 5427 5426 5425 5423 5421 5419
5513 5514 5511 5512 5511 5510 5507 5504 5502 5498 5495 5492 5490 5487 5484 5481 5478 5475 5471 5467 5462 5458 5455 5452 5449 5447 5444 5440 5437 5434 5431 5428 5426 5424 5422 5420 5419 5417 5416 5416 5414 5413 5411 5410
5507 5505 5503 5504 5502 5501 5499 5496 5493 5490 5488 5485 5481 5478 5475 5472 5470 5467 5463 5460 5456 5452 5448 5445 5442 5439 5436 5433 5429 5426 5422 5420 5417 5414 5412 5410 5408 5406 5404 5403 5402 5401 5400 5399
5501 5499 5497 5497 5494 5492 5489 5485 5482 5479 5477 5475 5472 5468 5465 5462 5460 5458 5455 5451 5448 5444 5441 5437 5434 5431 5428 5425 5421 5417 5414 5410 5407 5405 5402 5400 5398 5396 5393 5392 5390 5388 5387 5387
5496 5493 5490 5486 5484 5481 5478 5475 5472 5470 5467 5465 5461 5459 5456 5453 5451 5449 5446 5442 5439 5436 5433 5430 5426 5423 5420 5416 5412 5408 5405 5403 5399 5396 5393 5391 5388 5386 5383 5380 5378 5376 5375 5373
5484 5481 5478 5476 5474 5473 5470 5467 5464 5462 5459 5456 5453 5450 5446 5443 5440 5438 5436 5433 5430 5428 5425 5422 5418 5415 5411 5408 5404 5400 5397 5394 5391 5387 5383 5381 5378 5375 5373 5370 5367 5365 5363 5361
5482 5479 5475 5472 5468 5465 5463 5460 5457 5454 5450 5448 5444 5441 5437 5433 5431 5429 5426 5423 5420 5417 5415 5413 5410 5407 5403 5400 5396 5392 5388 5385 5381 5378 5374 5371 5368 5365 5362 5359 5357 5354 5352 5350
5475 5472 5469 5465 5461 5458 5454 5451 5448 5445 5442 5438 5434 5431 5428 5425 5423 5419 5416 5412 5410 5409 5407 5404 5402 5398 5395 5392 5388 5384 5380 5376 5372 5368 5365 5362 5359 5355 5352 5349 5346 5343 5341 5339
5464 5461 5458 5454 5451 5448 5444 5442 5439 5435 5432 5429 5425 5422 5419 5416 5413 5409 5406 5403 5403 5402 5399 5396 5393 5390 5386 5383 5379 5375 5371 5367 5363 5359 5355 5351 5348 5344 5341 5338 5335 5332 5329 5327
5452 5449 5446 5442 5440 5437 5434 5432 5429 5425 5422 5419 5415 5413 5410 5406 5403 5399 5396 5395 5394 5392 5390 5388 5384 5381 5377 5374 5370 5365 5361 5357 5353 5348 5345 5341 5337 5333 5329 5326 5323 5321 5318 5316
5441 5438 5435 5432 5429 5426 5424 5421 5418 5415 5412 5408 5405 5402 5398 5395 5392 5390 5388 5387 5386 5384 5381 5378 5375 5373 5369 5366 5360 5356 5351 5347 5342 5338 5334 5330 5326 5322 5319 5315 5312 5310 5307 5305
5430 5427 5425 5422 5419 5416 5414 5411 5408 5405 5402 5399 5396 5392 5389 5387 5384 5381 5380 5378 5376 5375 5372 5369 5366 5364 5361 5355 5350 5345 5341 5336 5332 5327 5323 5319 5315 5312 5308 5304 5301 5299 5297 5294
5421 5418 5415 5412 5409 5405 5403 5401 5398 5395 5392 5389 5386 5383 5380 5376 5374 5373 5371 5370 5368 5365 5362 5359 5357 5354 5350 5344 5339 5334 5330 5325 5321 5316 5312 5309 5305 5301 5298 5295 5292 5289 5287 5284
5411 5408 5405 5401 5399 5397 5394 5391 5387 5384 5381 5379 5376 5374 5371 5368 5365 5363 5360 5358 5357 5355 5351 5349 5346 5343 5338 5333 5329 5324 5320 5315 5311 5306 5302 5298 5295 5291 5288 5285 5283 5280 5277 5275
5402 5400 5398 5395 5392 5389 5385 5381 5378 5376 5373 5370 5367 5364 5361 5358 5356 5353 5350 5348 5346 5344 5340 5337 5334 5332 5327 5322 5318 5314 5309 5305 5301 5296 5292 5289 5285 5282 5279 5277 5274 5271 5268 5266
5393 5391 5388 5386 5383 5380 5377 5373 5370 5368 5365 5362 5358 5355 5352 5349 5346 5343 5340 5338 5335 5333 5330 5327 5323 5320 5316 5311 5307 5303 5298 5294 5290 5287 5283 5280 5276 5273 5271 5268 5265 5263 5261 5259